Regional Weather Roundup
Issued by NWS Upton, NY

Current Version | Previous Version | Text Only | Print | Product List | Glossary Off
Versions: 1 2 3 4 5 6 7 8 9 10 11 12 13 14 15 16 17 18 19 20 21 22 23 24 25 26 27 28 29 30 31 32 33 34 35 36 37 38 39 40 41 42 43 44 45 46 47 48 49 50
000 ASUS41 KOKX 181205 RWROKX REGIONAL WEATHER ROUNDUP NATIONAL WEATHER SERVICE NEW YORK NY 700 AM EST THU DEC 18 2014 NOTE: "FAIR" INDICATES FEW OR NO CLOUDS BELOW 12,000 FEET WITH NO SIGNIFICANT WEATHER AND/OR OBSTRUCTIONS TO VISIBILITY. NYZ071-072-176-178-NJZ106-104-181300- NEW YORK CITY METRO AREA CITY SKY/WX TMP DP RH WIND PRES REMARKS CENTRAL PARK CLOUDY 38 21 50 NW9G29 29.98R WCI 31 LAGUARDIA APRT MOCLDY 38 24 57 NW23G29 29.95R WCI 27 KENNEDY INTL PTCLDY 39 22 50 NW17G24 29.96R WCI 30 NEWARK/LIBERTY CLOUDY 38 22 52 NW9G20 29.97R WCI 31 BRNX BOT. GARD N/A N/A N/A N/A W12 29.96R TETERBORO CLOUDY 38 22 52 NW12G21 29.96R WCI 30 $$ NYZ177-179-078>081-181300- LONG ISLAND NEW YORK CITY SKY/WX TMP DP RH WIND PRES REMARKS FARMINGDALE CLEAR 38 23 55 NW12G21 29.93R WCI 30 ISLIP PTCLDY 37 24 59 NW17 29.90R WCI 27 SHIRLEY PTCLDY 37 25 61 W14 29.91R WCI 28 WESTHAMPTON PTCLDY 37 25 61 W12 29.90R WCI 29 MONTAUK POINT N/A 41 30 65 W17G28 29.86R $$ NYZ052-065-067-181300- HUDSON VALLEY CITY SKY/WX TMP DP RH WIND PRES REMARKS WHITE PLAINS MOCLDY 36 22 56 W17G23 29.91R WCI 26 NEWBURGH MOCLDY 36 25 64 NW14G23 29.92R WCI 27 MONTGOMERY CLOUDY 36 24 62 W14 29.93R WCI 27 POUGHKEEPSIE CLOUDY 38 23 55 W8G18 29.91R WCI 32 ALBANY FLURRIES 35 27 72 NW18 29.89R WCI 24 $$ NJZ001-105-106-008-010-013-015-019>022-104-181300- NEW JERSEY CITY SKY/WX TMP DP RH WIND PRES REMARKS NEWARK/LIBERTY CLOUDY 38 22 52 NW9G20 29.97R WCI 31 TETERBORO CLOUDY 38 22 52 NW12G21 29.96R WCI 30 CALDWELL CLOUDY 37 21 52 NW13G23 29.97R WCI 29 MORRISTOWN MOCLDY 37 23 56 NW13G23 29.97R WCI 29 SOMERVILLE MOCLDY 35 22 58 NW7 29.97R WCI 29 SUSSEX CLOUDY 36 22 56 NW12G22 29.96R WCI 28 ANDOVER N/A 35 21 56 N9G20 29.96R WCI 28 TRENTON NOT AVBL MILLVILLE CLEAR 34 18 52 W10 30.08R WCI 26 ATLANTIC CITY CLEAR 33 18 53 W9 30.06R WCI 25 WRIGHTSTOWN CLEAR 33 21 61 W8 30.00R WCI 26 TOMS RIVER CLEAR 32 21 64 CALM 30.01S BELMAR CLEAR 34 19 55 W10G18 29.98R WCI 26 $$ PAZ047>061-062-071-181300- EASTERN PENNSYLVANIA CITY SKY/WX TMP DP RH WIND PRES REMARKS PHILADELPHIA PTCLDY 35 18 49 W10 30.06R WCI 27 ALLENTOWN CLOUDY 36 21 54 NW17G24 30.00R WCI 26 SCRANTON CLOUDY 33 21 61 NW16 29.99R WCI 23 $$ CTZ002-004>006-009-010-012-RIZ004-006-007-MAZ004-011-015-181300- SOUTHERN NEW ENGLAND IN CT CITY SKY/WX TMP DP RH WIND PRES REMARKS BRADLEY INTL CLOUDY 37 27 67 W10G17 29.83R WCI 30 HARTFORD CLOUDY 38 26 62 VRB7 29.86R WCI 33 DANBURY CLEAR 34 21 59 VRB6 29.89R WCI 29 WTRBRY/OXFORD PTCLDY 34 23 64 NW9G18 29.86R WCI 26 BRIDGEPORT PTCLDY 37 25 61 W9 29.89R WCI 30 MERIDEN CLOUDY 37 27 67 W7 29.87R WCI 32 NEW HAVEN MOCLDY 41 26 55 W8G16 29.88R CHESTER PTSUNNY 36 30 80 NW8G16 29.85S WCI 29 GROTON MOCLDY 37 30 75 W16G24 29.84R WCI 28 WILLIMANTIC FLURRIES 35 30 82 W7 29.83R WCI 29 IN RI CITY SKY/WX TMP DP RH WIND PRES REMARKS PROVIDENCE LGT RAIN 37 30 75 W14 29.79R WCI 28 BLOCK ISLAND CLOUDY 39 28 65 NW20G28 29.82R WCI 30 WESTERLY CLOUDY 38 29 70 VRB6G18 29.83R WCI 33 IN MA CITY SKY/WX TMP DP RH WIND PRES REMARKS BOSTON LGT RAIN 37 33 85 W16G24 29.75R WCI 28 WORCESTER LGT SNOW 32 30 92 W18G28 29.73R FOG WCI 20 WESTFIELD CLOUDY 38 26 62 NW14G20 29.82R WCI 30 PROVINCETOWN CLOUDY 37 34 87 W20G31 29.73R WCI 27 NANTUCKET CLOUDY 39 31 72 W16G26 29.75R WCI 30 $$ ANZ330-335-338-340-345-350-353-355-181300- COASTAL MARINE OBSERVATIONS STATION/POSITION TIME SKY/WX TEMP WIND PRES VSBY WAVE AIR SEA DIR/SP/G HT/PER (UTC) (F) (DEG/KT/KT) (MB) (MI) (FT/S) NY HARB ENTRANCE 1200 40 46 280/ 21/ 25 1014.5 3/ 4 4S FIRE IS 1200 46 N/A 4/ 5 20S FIRE ISLAND 1100 40 50 1012.8 6/ 6 23SW MTP 1200 N/A 6/ 6 HUDSON CANYON 1200 42 55 300/ 25/ 29 1013.2 9/ 7 EXECUTION ROCKS 1200 39 42 290/ 17/ 23 N/A WESTERN LI SOUND 1200 39 280/ 19/ 27 N/A 1/ 3 CENTRAL LI SOUND 1100 40 45 290/ 17/ 21 N/A 3/ 5 EASTERN LI SOUND NOT AVBL ROBBINS REEF 1200 38 310/ 16/ 22 1013.4 $$ >>>>>>>>>>>>>>>>>>>>>>>>>>>> KEY <<<<<<<<<<<<<<<<<<<<<<<<<<< > < > SKY/WX - SKY CONDITION/PRESENT WEATHER < > TMP - TEMPERATURE IN FAHRENHEIT < > DP - DEWPOINT IN FAHRENHEIT < > RH - RELATIVE HUMIDITY IN PERCENT < > WIND - DIRECTION AND SPEED IN MPH < > PRES - MEAN SEA LEVEL PRESSURE IN INCHES OF HG < > WCI - WIND CHILL INDEX < > VSB - VISIBILITY IN MILES < > HX - HEAT INDEX < > TC - TEMPERATURE IN CELSIUS < > VRB - VARIABLE WIND DIRECTION < > < >>>>>>>>>>>>>>>>>>>>>>>>>>>> KEY <<<<<<<<<<<<<<<<<<<<<<<<<<<

USA.gov is the U.S. government's official web portal to all federal, state and local government web resources and services.